QPF
0.01 0.02 0.04 0.05 0.12 0.14 0.10 0.02 0.01 0.00 0.00 0.01 0.01 0.00 0.01 0.02 0.03 0.07 0.12 0.14 0.13 0.13 0.11 0.08 0.07 0.05 0.03 0.02 0.02 0.03 0.04 0.05 0.06 0.05 0.04 0.04 0.05 0.05 0.07 0.05 0.04 0.04 0.04 0.04 0.05 0.05 0.06 0.05 0.04
0.03 0.04 0.05 0.10 0.12 0.14 0.07 0.02 0.00 0.00 0.00 0.00 0.00 0.00 0.00 0.01 0.01 0.04 0.10 0.14 0.12 0.12 0.09 0.04 0.05 0.04 0.02 0.03 0.03 0.03 0.04 0.05 0.07 0.07 0.06 0.05 0.04 0.05 0.06 0.05 0.04 0.04 0.03 0.03 0.04 0.05 0.07 0.06 0.04
0.06 0.10 0.10 0.15 0.10 0.12 0.10 0.03 0.01 0.01 0.01 0.01 0.01 0.01 0.01 0.02 0.02 0.05 0.07 0.09 0.11 0.14 0.11 0.07 0.05 0.03 0.04 0.03 0.03 0.02 0.02 0.03 0.06 0.08 0.08 0.06 0.05 0.04 0.05 0.04 0.04 0.04 0.04 0.04 0.04 0.05 0.06 0.05 0.04
0.12 0.12 0.11 0.12 0.08 0.06 0.07 0.04 0.03 0.02 0.04 0.02 0.01 0.01 0.03 0.04 0.04 0.05 0.05 0.07 0.10 0.13 0.11 0.08 0.06 0.04 0.03 0.02 0.02 0.02 0.02 0.03 0.06 0.08 0.06 0.07 0.07 0.07 0.07 0.06 0.06 0.06 0.06 0.05 0.05 0.04 0.04 0.03 0.03
0.16 0.15 0.16 0.07 0.05 0.03 0.03 0.03 0.02 0.01 0.03 0.01 0.01 0.02 0.04 0.05 0.05 0.05 0.04 0.05 0.08 0.09 0.07 0.05 0.05 0.03 0.02 0.02 0.02 0.02 0.01 0.02 0.06 0.06 0.04 0.05 0.07 0.09 0.09 0.09 0.08 0.07 0.07 0.06 0.06 0.04 0.03 0.03 0.02
0.11 0.13 0.12 0.05 0.03 0.03 0.02 0.01 0.01 0.01 0.02 0.01 0.02 0.03 0.07 0.07 0.05 0.04 0.04 0.08 0.07 0.05 0.05 0.07 0.06 0.04 0.03 0.03 0.02 0.01 0.01 0.01 0.04 0.05 0.04 0.05 0.07 0.08 0.08 0.09 0.09 0.08 0.08 0.08 0.07 0.06 0.03 0.02 0.01
0.09 0.07 0.04 0.04 0.05 0.04 0.03 0.02 0.01 0.01 0.03 0.04 0.02 0.02 0.07 0.07 0.05 0.04 0.06 0.11 0.06 0.04 0.04 0.06 0.06 0.06 0.04 0.03 0.03 0.02 0.02 0.03 0.05 0.09 0.10 0.15 0.17 0.13 0.11 0.11 0.10 0.09 0.09 0.07 0.06 0.07 0.05 0.03 0.02
0.04 0.05 0.03 0.04 0.04 0.04 0.04 0.02 0.02 0.02 0.02 0.02 0.02 0.02 0.04 0.03 0.03 0.04 0.08 0.09 0.04 0.02 0.03 0.05 0.06 0.06 0.04 0.04 0.04 0.04 0.05 0.06 0.09 0.12 0.10 0.15 0.18 0.17 0.15 0.13 0.11 0.08 0.07 0.06 0.07 0.08 0.05 0.04 0.03
0.02 0.02 0.02 0.04 0.04 0.03 0.03 0.02 0.01 0.02 0.01 0.01 0.02 0.03 0.02 0.01 0.02 0.05 0.08 0.06 0.02 0.02 0.02 0.02 0.03 0.03 0.03 0.03 0.05 0.05 0.06 0.06 0.07 0.13 0.19 0.12 0.12 0.14 0.14 0.12 0.11 0.09 0.07 0.07 0.07 0.10 0.08 0.06 0.06
0.02 0.02 0.02 0.03 0.03 0.03 0.02 0.02 0.01 0.02 0.02 0.02 0.01 0.01 0.02 0.02 0.02 0.04 0.04 0.03 0.02 0.02 0.01 0.03 0.02 0.01 0.02 0.02 0.04 0.05 0.05 0.03 0.03 0.04 0.10 0.07 0.07 0.11 0.11 0.12 0.15 0.14 0.12 0.11 0.09 0.12 0.11 0.09 0.07
0.01 0.02 0.02 0.03 0.03 0.02 0.01 0.01 0.01 0.02 0.02 0.01 0.00 0.01 0.02 0.03 0.02 0.01 0.01 0.02 0.01 0.01 0.01 0.01 0.01 0.01 0.01 0.01 0.02 0.03 0.03 0.03 0.02 0.03 0.05 0.05 0.05 0.08 0.09 0.09 0.14 0.16 0.16 0.15 0.12 0.12 0.10 0.09 0.08
0.01 0.01 0.01 0.02 0.02 0.02 0.01 0.01 0.01 0.01 0.00 0.00 0.00 0.01 0.02 0.02 0.02 0.01 0.01 0.01 0.01 0.00 0.01 0.01 0.01 0.01 0.01 0.01 0.02 0.02 0.02 0.02 0.02 0.03 0.04 0.04 0.05 0.07 0.07 0.08 0.12 0.14 0.16 0.17 0.12 0.11 0.09 0.06 0.06
0.00 0.01 0.01 0.02 0.02 0.02 0.02 0.01 0.01 0.01 0.01 0.00 0.00 0.01 0.01 0.01 0.02 0.01 0.01 0.01 0.02 0.01 0.01 0.02 0.02 0.02 0.02 0.02 0.02 0.02 0.02 0.02 0.02 0.03 0.04 0.05 0.06 0.08 0.07 0.10 0.14 0.13 0.14 0.15 0.10 0.09 0.08 0.08 0.05
0.01 0.01 0.01 0.02 0.02 0.02 0.04 0.04 0.01 0.01 0.02 0.01 0.01 0.01 0.02 0.03 0.01 0.01 0.01 0.01 0.01 0.02 0.02 0.03 0.04 0.03 0.02 0.02 0.02 0.02 0.02 0.02 0.03 0.03 0.03 0.05 0.04 0.04 0.06 0.11 0.16 0.14 0.11 0.10 0.08 0.07 0.07 0.07 0.05
0.01 0.02 0.01 0.01 0.01 0.01 0.03 0.04 0.03 0.01 0.01 0.02 0.01 0.01 0.02 0.03 0.01 0.01 0.02 0.02 0.02 0.02 0.03 0.03 0.04 0.03 0.02 0.02 0.02 0.02 0.03 0.02 0.02 0.02 0.02 0.03 0.04 0.03 0.06 0.10 0.16 0.15 0.15 0.13 0.12 0.11 0.09 0.08 0.05
0.01 0.02 0.02 0.01 0.01 0.01 0.02 0.04 0.02 0.01 0.01 0.01 0.01 0.02 0.02 0.02 0.01 0.01 0.02 0.05 0.04 0.03 0.03 0.03 0.03 0.02 0.01 0.01 0.02 0.02 0.02 0.02 0.02 0.02 0.03 0.02 0.04 0.04 0.06 0.10 0.12 0.15 0.20 0.19 0.13 0.10 0.09 0.08 0.07
0.04 0.03 0.02 0.02 0.01 0.01 0.01 0.02 0.02 0.02 0.02 0.01 0.02 0.03 0.02 0.01 0.01 0.01 0.01 0.06 0.06 0.03 0.03 0.03 0.02 0.02 0.01 0.01 0.03 0.04 0.03 0.02 0.03 0.03 0.03 0.02 0.03 0.04 0.05 0.08 0.12 0.11 0.13 0.13 0.11 0.09 0.09 0.11 0.08
0.04 0.02 0.02 0.02 0.02 0.02 0.02 0.02 0.02 0.02 0.02 0.02 0.02 0.02 0.02 0.02 0.01 0.01 0.01 0.02 0.04 0.03 0.04 0.04 0.04 0.03 0.01 0.02 0.03 0.04 0.04 0.04 0.05 0.04 0.03 0.03 0.04 0.05 0.05 0.05 0.09 0.10 0.09 0.11 0.11 0.09 0.09 0.11 0.12
0.03 0.02 0.02 0.03 0.01 0.03 0.04 0.05 0.04 0.02 0.02 0.03 0.03 0.02 0.01 0.01 0.01 0.01 0.01 0.01 0.02 0.03 0.04 0.05 0.05 0.04 0.02 0.02 0.02 0.02 0.02 0.03 0.04 0.06 0.05 0.04 0.04 0.05 0.04 0.04 0.06 0.09 0.10 0.10 0.10 0.09 0.09 0.09 0.12
0.02 0.01 0.02 0.03 0.02 0.02 0.04 0.08 0.06 0.04 0.03 0.04 0.06 0.03 0.02 0.02 0.02 0.02 0.02 0.02 0.01 0.01 0.02 0.04 0.05 0.05 0.03 0.01 0.01 0.02 0.02 0.02 0.03 0.04 0.05 0.05 0.05 0.06 0.04 0.04 0.06 0.08 0.11 0.12 0.10 0.09 0.09 0.08 0.08
0.02 0.01 0.01 0.02 0.02 0.01 0.03 0.06 0.06 0.03 0.03 0.03 0.03 0.03 0.04 0.04 0.03 0.02 0.03 0.02 0.01 0.00 0.00 0.01 0.02 0.03 0.04 0.04 0.04 0.04 0.04 0.04 0.04 0.04 0.05 0.06 0.07 0.07 0.07 0.06 0.05 0.06 0.07 0.09 0.11 0.11 0.09 0.09 0.11
0.01 0.01 0.01 0.01 0.01 0.02 0.03 0.04 0.05 0.03 0.03 0.04 0.06 0.03 0.07 0.07 0.03 0.02 0.03 0.03 0.02 0.01 0.00 0.00 0.01 0.01 0.03 0.03 0.03 0.04 0.04 0.03 0.03 0.05 0.05 0.06 0.08 0.12 0.12 0.09 0.10 0.09 0.08 0.07 0.08 0.09 0.10 0.10 0.11
0.01 0.01 0.01 0.01 0.02 0.04 0.06 0.06 0.05 0.03 0.04 0.05 0.05 0.04 0.10 0.07 0.03 0.03 0.04 0.04 0.03 0.01 0.00 0.01 0.01 0.01 0.01 0.01 0.02 0.03 0.03 0.03 0.04 0.04 0.04 0.05 0.07 0.12 0.15 0.11 0.09 0.08 0.07 0.06 0.06 0.07 0.08 0.08 0.07
0.02 0.02 0.02 0.02 0.03 0.06 0.07 0.07 0.06 0.04 0.04 0.04 0.03 0.03 0.04 0.05 0.04 0.03 0.04 0.04 0.04 0.03 0.01 0.01 0.01 0.01 0.00 0.00 0.01 0.02 0.02 0.02 0.03 0.03 0.03 0.02 0.03 0.06 0.08 0.07 0.06 0.05 0.04 0.04 0.06 0.06 0.06 0.07 0.07
0.01 0.02 0.02 0.03 0.05 0.06 0.04 0.05 0.07 0.07 0.06 0.05 0.02 0.02 0.02 0.02 0.03 0.06 0.08 0.07 0.08 0.07 0.05 0.02 0.01 0.01 0.01 0.01 0.02 0.03 0.02 0.02 0.03 0.03 0.02 0.01 0.01 0.01 0.02 0.05 0.06 0.04 0.03 0.04 0.05 0.08 0.07 0.08 0.08
0.01 0.01 0.01 0.02 0.03 0.05 0.03 0.04 0.06 0.04 0.06 0.08 0.05 0.02 0.01 0.02 0.03 0.08 0.13 0.14 0.12 0.10 0.08 0.04 0.03 0.02 0.01 0.01 0.02 0.03 0.02 0.02 0.03 0.03 0.03 0.02 0.01 0.01 0.01 0.04 0.05 0.04 0.04 0.04 0.06 0.06 0.06 0.07 0.06
0.01 0.01 0.01 0.02 0.03 0.05 0.05 0.07 0.05 0.03 0.05 0.08 0.06 0.03 0.02 0.02 0.03 0.09 0.14 0.15 0.13 0.12 0.08 0.05 0.04 0.03 0.03 0.02 0.02 0.03 0.02 0.02 0.03 0.02 0.02 0.02 0.02 0.02 0.01 0.02 0.04 0.05 0.06 0.06 0.06 0.06 0.06 0.07 0.06
0.01 0.01 0.02 0.01 0.02 0.03 0.08 0.08 0.05 0.05 0.05 0.05 0.04 0.03 0.02 0.02 0.05 0.08 0.09 0.11 0.09 0.07 0.06 0.05 0.04 0.04 0.04 0.04 0.03 0.03 0.03 0.02 0.01 0.01 0.01 0.02 0.02 0.01 0.01 0.02 0.02 0.04 0.06 0.06 0.07 0.07 0.08 0.08 0.06
0.03 0.02 0.01 0.01 0.01 0.03 0.09 0.09 0.04 0.04 0.04 0.03 0.02 0.02 0.01 0.02 0.05 0.08 0.08 0.06 0.04 0.03 0.03 0.03 0.04 0.04 0.04 0.03 0.04 0.04 0.03 0.02 0.02 0.01 0.02 0.02 0.01 0.01 0.01 0.02 0.01 0.01 0.02 0.04 0.06 0.08 0.08 0.08 0.06
0.02 0.01 0.01 0.01 0.01 0.01 0.03 0.05 0.02 0.02 0.04 0.03 0.03 0.02 0.01 0.02 0.07 0.09 0.07 0.06 0.03 0.02 0.02 0.02 0.03 0.04 0.05 0.04 0.04 0.03 0.03 0.03 0.03 0.03 0.02 0.01 0.01 0.01 0.01 0.01 0.01 0.01 0.01 0.01 0.03 0.05 0.06 0.07 0.08
MSLP
1008.43 1009.41 1010.38 1011.17 1011.65 1011.75 1011.50 1010.96 1010.28 1009.63 1009.15 1008.92 1008.97 1009.23 1009.59 1009.93 1010.11 1010.02 1009.64 1008.98 1008.12 1007.17 1006.21 1005.34 1004.59 1003.94 1003.34 1002.74 1002.06 1001.29 1000.42 999.52 998.67 997.96 997.51 997.37 997.57 998.08 998.86 999.82 1000.87 1001.95 1002.99 1003.98 1004.91 1005.79 1006.66 1007.50 1008.33
1008.68 1009.78 1010.77 1011.49 1011.82 1011.74 1011.29 1010.58 1009.78 1009.05 1008.53 1008.30 1008.35 1008.61 1008.97 1009.30 1009.46 1009.37 1009.02 1008.43 1007.67 1006.85 1006.03 1005.30 1004.66 1004.10 1003.57 1003.01 1002.38 1001.64 1000.83 999.99 999.22 998.60 998.21 998.10 998.30 998.78 999.49 1000.38 1001.35 1002.35 1003.34 1004.29 1005.20 1006.08 1006.93 1007.75 1008.55
1009.09 1010.23 1011.18 1011.77 1011.94 1011.66 1011.03 1010.19 1009.29 1008.51 1007.97 1007.73 1007.77 1008.00 1008.33 1008.61 1008.73 1008.64 1008.33 1007.82 1007.19 1006.52 1005.88 1005.30 1004.81 1004.35 1003.89 1003.38 1002.78 1002.08 1001.32 1000.54 999.82 999.25 998.89 998.79 998.96 999.38 1000.02 1000.82 1001.72 1002.67 1003.64 1004.58 1005.50 1006.38 1007.22 1008.03 1008.79
1009.59 1010.70 1011.53 1011.96 1011.94 1011.49 1010.73 1009.79 1008.86 1008.08 1007.55 1007.32 1007.34 1007.54 1007.79 1008.01 1008.08 1007.98 1007.70 1007.28 1006.79 1006.29 1005.82 1005.41 1005.05 1004.69 1004.30 1003.83 1003.26 1002.59 1001.86 1001.12 1000.44 999.90 999.55 999.43 999.56 999.92 1000.48 1001.21 1002.06 1002.98 1003.94 1004.90 1005.84 1006.74 1007.59 1008.38 1009.11
1010.03 1011.03 1011.70 1011.94 1011.74 1011.17 1010.34 1009.39 1008.50 1007.79 1007.33 1007.13 1007.15 1007.30 1007.49 1007.62 1007.63 1007.51 1007.26 1006.93 1006.57 1006.22 1005.92 1005.65 1005.40 1005.13 1004.79 1004.35 1003.79 1003.15 1002.44 1001.74 1001.10 1000.58 1000.23 1000.09 1000.17 1000.47 1000.96 1001.63 1002.44 1003.35 1004.32 1005.31 1006.28 1007.21 1008.07 1008.85 1009.55
1010.28 1011.10 1011.55 1011.60 1011.27 1010.63 1009.81 1008.96 1008.20 1007.63 1007.30 1007.19 1007.23 1007.35 1007.47 1007.52 1007.47 1007.31 1007.09 1006.83 1006.58 1006.37 1006.19 1006.03 1005.86 1005.63 1005.31 1004.88 1004.34 1003.72 1003.05 1002.39 1001.79 1001.31 1000.99 1000.84 1000.88 1001.13 1001.56 1002.19 1002.96 1003.86 1004.84 1005.85 1006.85 1007.80 1008.67 1009.43 1010.10
1010.19 1010.78 1011.01 1010.89 1010.46 1009.83 1009.12 1008.44 1007.91 1007.57 1007.42 1007.43 1007.53 1007.64 1007.71 1007.69 1007.58 1007.40 1007.19 1006.99 1006.83 1006.71 1006.62 1006.53 1006.39 1006.17 1005.85 1005.41 1004.88 1004.29 1003.67 1003.08 1002.56 1002.15 1001.87 1001.73 1001.77 1001.98 1002.38 1002.95 1003.69 1004.56 1005.53 1006.54 1007.55 1008.50 1009.36 1010.10 1010.73
1009.73 1010.07 1010.08 1009.82 1009.35 1008.79 1008.26 1007.84 1007.59 1007.52 1007.60 1007.77 1007.95 1008.07 1008.11 1008.04 1007.89 1007.70 1007.51 1007.35 1007.24 1007.19 1007.14 1007.07 1006.94 1006.70 1006.36 1005.91 1005.40 1004.85 1004.31 1003.83 1003.41 1003.10 1002.90 1002.82 1002.87 1003.07 1003.42 1003.95 1004.63 1005.46 1006.39 1007.37 1008.35 1009.27 1010.09 1010.79 1011.37
1008.95 1009.04 1008.87 1008.51 1008.05 1007.62 1007.31 1007.17 1007.23 1007.45 1007.77 1008.10 1008.37 1008.53 1008.55 1008.46 1008.29 1008.09 1007.92 1007.80 1007.74 1007.71 1007.69 1007.62 1007.46 1007.19 1006.82 1006.38 1005.90 1005.42 1004.98 1004.62 1004.35 1004.16 1004.07 1004.06 1004.15 1004.35 1004.68 1005.15 1005.77 1006.52 1007.38 1008.28 1009.19 1010.05 1010.82 1011.46 1011.98
1008.01 1007.89 1007.57 1007.15 1006.74 1006.46 1006.38 1006.52 1006.86 1007.35 1007.87 1008.34 1008.70 1008.89 1008.91 1008.82 1008.65 1008.47 1008.33 1008.25 1008.22 1008.22 1008.19 1008.11 1007.91 1007.62 1007.24 1006.81 1006.38 1005.99 1005.67 1005.45 1005.33 1005.29 1005.32 1005.41 1005.55 1005.77 1006.07 1006.49 1007.03 1007.69 1008.43 1009.24 1010.04 1010.81 1011.49 1012.06 1012.52
1007.12 1006.84 1006.42 1005.98 1005.64 1005.51 1005.63 1006.00 1006.56 1007.24 1007.91 1008.47 1008.87 1009.08 1009.12 1009.03 1008.88 1008.74 1008.64 1008.61 1008.62 1008.64 1008.61 1008.51 1008.30 1007.99 1007.61 1007.21 1006.85 1006.56 1006.37 1006.30 1006.32 1006.43 1006.58 1006.76 1006.96 1007.20 1007.49 1007.86 1008.32 1008.87 1009.50 1010.18 1010.86 1011.51 1012.09 1012.58 1012.97
1006.48 1006.11 1005.64 1005.20 1004.94 1004.92 1005.19 1005.71 1006.41 1007.19 1007.91 1008.51 1008.91 1009.12 1009.15 1009.08 1008.97 1008.87 1008.83 1008.85 1008.90 1008.94 1008.92 1008.81 1008.60 1008.30 1007.95 1007.60 1007.31 1007.12 1007.05 1007.11 1007.26 1007.48 1007.73 1007.99 1008.25 1008.51 1008.80 1009.13 1009.52 1009.99 1010.50 1011.06 1011.62 1012.15 1012.63 1013.03 1013.35
1006.25 1005.83 1005.35 1004.95 1004.75 1004.81 1005.16 1005.75 1006.48 1007.25 1007.95 1008.50 1008.86 1009.03 1009.06 1009.00 1008.93 1008.89 1008.91 1008.97 1009.06 1009.12 1009.12 1009.02 1008.82 1008.55 1008.25 1007.97 1007.76 1007.66 1007.69 1007.83 1008.07 1008.36 1008.68 1008.99 1009.30 1009.59 1009.89 1010.21 1010.56 1010.96 1011.39 1011.84 1012.30 1012.72 1013.10 1013.42 1013.68
1006.45 1006.03 1005.57 1005.22 1005.07 1005.18 1005.55 1006.12 1006.79 1007.48 1008.07 1008.51 1008.78 1008.89 1008.90 1008.86 1008.83 1008.84 1008.91 1009.02 1009.13 1009.21 1009.22 1009.14 1008.97 1008.75 1008.51 1008.31 1008.18 1008.15 1008.24 1008.43 1008.71 1009.02 1009.36 1009.70 1010.02 1010.34 1010.66 1010.99 1011.35 1011.72 1012.10 1012.49 1012.86 1013.21 1013.51 1013.76 1013.97
1006.98 1006.59 1006.18 1005.89 1005.79 1005.92 1006.26 1006.75 1007.31 1007.84 1008.27 1008.57 1008.72 1008.77 1008.75 1008.72 1008.72 1008.78 1008.89 1009.02 1009.15 1009.23 1009.24 1009.18 1009.05 1008.88 1008.72 1008.60 1008.55 1008.58 1008.70 1008.90 1009.15 1009.44 1009.75 1010.08 1010.40 1010.74 1011.09 1011.46 1011.84 1012.22 1012.60 1012.96 1013.29 1013.59 1013.84 1014.05 1014.23
1007.67 1007.32 1006.98 1006.75 1006.70 1006.84 1007.13 1007.52 1007.92 1008.28 1008.53 1008.67 1008.71 1008.69 1008.64 1008.63 1008.66 1008.75 1008.88 1009.02 1009.13 1009.20 1009.21 1009.15 1009.06 1008.96 1008.87 1008.83 1008.85 1008.93 1009.06 1009.23 1009.43 1009.65 1009.90 1010.17 1010.47 1010.82 1011.19 1011.60 1012.03 1012.46 1012.86 1013.23 1013.55 1013.82 1014.05 1014.24 1014.41
1008.31 1008.00 1007.74 1007.60 1007.61 1007.76 1008.01 1008.29 1008.54 1008.71 1008.79 1008.78 1008.71 1008.63 1008.57 1008.58 1008.64 1008.75 1008.89 1009.02 1009.10 1009.14 1009.12 1009.07 1009.01 1008.97 1008.97 1009.01 1009.09 1009.20 1009.33 1009.46 1009.59 1009.71 1009.87 1010.06 1010.31 1010.64 1011.03 1011.48 1011.95 1012.43 1012.87 1013.26 1013.59 1013.87 1014.10 1014.30 1014.47
1008.73 1008.48 1008.32 1008.28 1008.37 1008.56 1008.77 1008.96 1009.07 1009.08 1008.99 1008.84 1008.67 1008.55 1008.49 1008.52 1008.62 1008.76 1008.90 1009.00 1009.05 1009.04 1009.00 1008.94 1008.91 1008.92 1009.00 1009.13 1009.28 1009.43 1009.56 1009.64 1009.68 1009.71 1009.75 1009.84 1010.03 1010.31 1010.69 1011.16 1011.66 1012.17 1012.64 1013.06 1013.41 1013.70 1013.95 1014.17 1014.38
1008.87 1008.70 1008.65 1008.75 1008.94 1009.19 1009.39 1009.50 1009.48 1009.33 1009.09 1008.81 1008.56 1008.40 1008.35 1008.42 1008.56 1008.73 1008.88 1008.96 1008.98 1008.93 1008.85 1008.78 1008.77 1008.84 1009.00 1009.21 1009.43 1009.63 1009.77 1009.82 1009.79 1009.71 1009.65 1009.63 1009.72 1009.94 1010.28 1010.73 1011.24 1011.75 1012.23 1012.66 1013.02 1013.32 1013.59 1013.85 1014.10
1008.75 1008.69 1008.80 1009.06 1009.39 1009.70 1009.91 1009.95 1009.81 1009.50 1009.09 1008.69 1008.35 1008.16 1008.12 1008.22 1008.41 1008.63 1008.80 1008.89 1008.88 1008.81 1008.70 1008.63 1008.64 1008.76 1008.98 1009.27 1009.57 1009.83 1009.99 1010.02 1009.94 1009.79 1009.62 1009.51 1009.50 1009.63 1009.90 1010.30 1010.76 1011.25 1011.71 1012.11 1012.46 1012.77 1013.05 1013.33 1013.64
1008.51 1008.60 1008.91 1009.36 1009.84 1010.24 1010.45 1010.42 1010.13 1009.65 1009.07 1008.51 1008.07 1007.82 1007.78 1007.92 1008.17 1008.45 1008.67 1008.78 1008.78 1008.70 1008.59 1008.51 1008.54 1008.70 1008.97 1009.33 1009.70 1010.01 1010.21 1010.25 1010.15 1009.94 1009.70 1009.50 1009.40 1009.43 1009.61 1009.93 1010.32 1010.74 1011.14 1011.50 1011.81 1012.09 1012.37 1012.67 1013.03
1008.32 1008.62 1009.15 1009.81 1010.45 1010.93 1011.13 1011.00 1010.55 1009.87 1009.08 1008.35 1007.77 1007.45 1007.39 1007.56 1007.87 1008.21 1008.50 1008.67 1008.71 1008.65 1008.54 1008.47 1008.51 1008.68 1008.99 1009.39 1009.82 1010.18 1010.41 1010.47 1010.37 1010.15 1009.87 1009.60 1009.42 1009.37 1009.45 1009.67 1009.96 1010.29 1010.60 1010.89 1011.14 1011.37 1011.63 1011.93 1012.30
1008.31 1008.85 1009.64 1010.52 1011.31 1011.85 1012.01 1011.76 1011.13 1010.22 1009.21 1008.26 1007.53 1007.11 1007.01 1007.20 1007.56 1007.99 1008.36 1008.61 1008.71 1008.67 1008.59 1008.52 1008.55 1008.73 1009.04 1009.46 1009.90 1010.29 1010.55 1010.65 1010.57 1010.35 1010.05 1009.75 1009.52 1009.40 1009.40 1009.52 1009.71 1009.93 1010.15 1010.35 1010.52 1010.69 1010.90 1011.17 1011.54
1008.53 1009.34 1010.37 1011.45 1012.37 1012.95 1013.06 1012.67 1011.84 1010.70 1009.45 1008.30 1007.40 1006.87 1006.72 1006.91 1007.33 1007.83 1008.29 1008.62 1008.79 1008.80 1008.73 1008.67 1008.68 1008.82 1009.11 1009.50 1009.93 1010.32 1010.60 1010.72 1010.67 1010.47 1010.19 1009.89 1009.64 1009.47 1009.41 1009.45 1009.55 1009.67 1009.79 1009.90 1009.98 1010.08 1010.22 1010.44 1010.77
1008.93 1009.99 1011.24 1012.48 1013.49 1014.08 1014.12 1013.59 1012.58 1011.23 1009.77 1008.44 1007.39 1006.76 1006.57 1006.75 1007.21 1007.78 1008.32 1008.73 1008.96 1009.02 1008.97 1008.89 1008.86 1008.95 1009.18 1009.51 1009.89 1010.25 1010.52 1010.65 1010.63 1010.47 1010.22 1009.95 1009.70 1009.52 1009.42 1009.40 1009.43 1009.48 1009.51 1009.53 1009.53 1009.55 1009.62 1009.77 1010.04
1009.38 1010.63 1012.04 1013.39 1014.44 1015.00 1014.97 1014.33 1013.17 1011.67 1010.08 1008.61 1007.47 1006.78 1006.55 1006.75 1007.23 1007.85 1008.46 1008.93 1009.21 1009.30 1009.26 1009.15 1009.08 1009.10 1009.23 1009.48 1009.79 1010.09 1010.33 1010.46 1010.46 1010.33 1010.12 1009.89 1009.66 1009.49 1009.38 1009.33 1009.31 1009.30 1009.27 1009.22 1009.15 1009.09 1009.08 1009.16 1009.35
1009.69 1011.06 1012.55 1013.92 1014.96 1015.48 1015.38 1014.67 1013.44 1011.88 1010.23 1008.74 1007.58 1006.87 1006.65 1006.86 1007.37 1008.03 1008.67 1009.17 1009.48 1009.59 1009.54 1009.41 1009.29 1009.23 1009.28 1009.43 1009.65 1009.88 1010.07 1010.18 1010.18 1010.08 1009.91 1009.70 1009.51 1009.35 1009.25 1009.19 1009.14 1009.09 1009.02 1008.91 1008.79 1008.67 1008.60 1008.60 1008.72
1009.74 1011.12 1012.58 1013.90 1014.87 1015.32 1015.18 1014.44 1013.23 1011.71 1010.13 1008.71 1007.63 1006.99 1006.82 1007.06 1007.59 1008.25 1008.90 1009.41 1009.73 1009.84 1009.78 1009.63 1009.46 1009.34 1009.31 1009.38 1009.51 1009.67 1009.80 1009.87 1009.86 1009.76 1009.61 1009.43 1009.27 1009.13 1009.03 1008.96 1008.90 1008.83 1008.72 1008.59 1008.43 1008.27 1008.14 1008.09 1008.14
1009.43 1010.72 1012.06 1013.24 1014.09 1014.47 1014.29 1013.60 1012.49 1011.12 1009.72 1008.48 1007.56 1007.06 1006.98 1007.27 1007.82 1008.47 1009.10 1009.59 1009.90 1009.99 1009.93 1009.77 1009.58 1009.43 1009.35 1009.36 1009.43 1009.52 1009.59 1009.62 1009.58 1009.47 1009.31 1009.14 1008.97 1008.84 1008.73 1008.66 1008.59 1008.50 1008.39 1008.23 1008.06 1007.87 1007.72 1007.63 1007.63
1008.84 1009.95 1011.08 1012.07 1012.75 1013.03 1012.86 1012.25 1011.30 1010.17 1009.04 1008.07 1007.39 1007.07 1007.12 1007.47 1008.02 1008.65 1009.23 1009.68 1009.95 1010.03 1009.97 1009.82 1009.64 1009.49 1009.41 1009.40 1009.43 1009.47 1009.50 1009.48 1009.39 1009.25 1009.06 1008.87 1008.69 1008.53 1008.42 1008.33 1008.24 1008.15 1008.03 1007.87 1007.69 1007.51 1007.34 1007.24 1007.21
Thickness
5831 5829 5826 5814 5794 5775 5773 5790 5803 5804 5804 5812 5815 5809 5797 5788 5780 5771 5793 5803 5803 5801 5800 5799 5798 5797 5796 5795 5794 5792 5791 5789 5788 5787 5785 5784 5783 5782 5781 5779 5778 5776 5775 5774 5773 5772 5771 5769 5768
5834 5831 5820 5804 5780 5760 5771 5796 5801 5806 5811 5817 5815 5809 5799 5791 5797 5794 5797 5801 5803 5801 5800 5798 5797 5796 5795 5793 5792 5791 5789 5788 5787 5785 5784 5783 5782 5781 5779 5778 5776 5775 5774 5773 5772 5771 5770 5769 5767
5836 5832 5810 5791 5774 5767 5774 5797 5805 5814 5820 5817 5808 5808 5800 5792 5798 5798 5801 5803 5802 5800 5799 5797 5796 5795 5793 5792 5791 5789 5788 5787 5785 5784 5783 5781 5780 5779 5778 5777 5775 5774 5773 5772 5771 5770 5769 5768 5767
5834 5820 5805 5783 5775 5789 5796 5804 5813 5811 5812 5815 5808 5798 5800 5806 5804 5803 5804 5804 5801 5799 5797 5796 5795 5794 5792 5791 5789 5788 5787 5785 5784 5783 5782 5780 5779 5778 5777 5776 5774 5773 5772 5771 5771 5770 5769 5768 5767
5830 5808 5787 5775 5782 5800 5810 5817 5819 5811 5806 5807 5804 5791 5791 5805 5809 5806 5804 5803 5800 5797 5796 5795 5794 5792 5791 5789 5788 5786 5785 5784 5783 5781 5780 5779 5778 5777 5776 5775 5774 5773 5772 5771 5770 5769 5768 5767 5766
5816 5801 5776 5769 5785 5804 5814 5821 5819 5811 5806 5805 5801 5792 5789 5803 5804 5803 5803 5801 5800 5797 5795 5794 5792 5790 5789 5787 5786 5785 5783 5782 5781 5780 5779 5778 5777 5776 5774 5773 5772 5771 5771 5770 5769 5769 5768 5767 5766
5808 5793 5780 5781 5788 5798 5811 5821 5816 5810 5806 5807 5807 5791 5790 5798 5803 5804 5802 5800 5798 5796 5794 5792 5791 5789 5787 5786 5785 5783 5782 5781 5780 5779 5778 5777 5776 5775 5773 5772 5772 5771 5770 5770 5769 5768 5767 5767 5766
5821 5797 5786 5786 5788 5794 5814 5821 5820 5816 5810 5818 5814 5793 5787 5798 5805 5804 5800 5798 5795 5794 5792 5791 5789 5788 5786 5785 5784 5782 5781 5780 5779 5778 5776 5776 5775 5774 5772 5771 5771 5771 5770 5769 5768 5768 5767 5766 5766
5830 5794 5782 5791 5794 5799 5816 5814 5818 5825 5817 5815 5815 5808 5805 5807 5806 5800 5795 5792 5791 5790 5790 5789 5788 5786 5785 5784 5782 5781 5780 5779 5778 5777 5776 5775 5773 5772 5771 5771 5771 5770 5769 5769 5768 5767 5767 5766 5765
5819 5790 5799 5816 5817 5813 5818 5817 5817 5813 5807 5804 5806 5809 5810 5807 5801 5795 5790 5788 5787 5787 5788 5788 5788 5786 5785 5784 5782 5781 5779 5778 5777 5776 5775 5774 5773 5772 5771 5770 5770 5769 5769 5768 5768 5767 5767 5766 5766
5823 5809 5820 5827 5830 5827 5820 5819 5823 5809 5797 5802 5801 5803 5805 5802 5798 5794 5792 5790 5789 5789 5788 5788 5788 5786 5785 5783 5782 5780 5779 5777 5776 5775 5774 5773 5772 5771 5770 5769 5769 5769 5768 5767 5767 5767 5766 5766 5765
5825 5827 5833 5831 5835 5829 5823 5821 5817 5814 5810 5817 5815 5811 5806 5799 5796 5794 5792 5791 5791 5789 5789 5789 5788 5787 5785 5783 5781 5779 5778 5777 5775 5775 5774 5773 5772 5770 5769 5768 5768 5768 5767 5767 5767 5766 5766 5765 5765
5825 5827 5836 5837 5835 5833 5828 5820 5816 5815 5821 5821 5817 5810 5804 5800 5797 5796 5796 5794 5791 5789 5789 5788 5788 5786 5785 5783 5781 5779 5778 5777 5776 5775 5774 5773 5772 5770 5769 5768 5768 5767 5767 5766 5766 5766 5765 5765 5765
5829 5832 5832 5834 5832 5832 5823 5818 5816 5813 5821 5817 5811 5805 5803 5800 5798 5796 5794 5791 5790 5789 5788 5788 5787 5786 5785 5783 5781 5780 5778 5777 5775 5774 5774 5773 5772 5771 5769 5768 5768 5767 5767 5767 5767 5766 5766 5765 5765
5834 5823 5822 5826 5828 5827 5822 5805 5808 5817 5818 5810 5807 5804 5802 5800 5799 5796 5795 5792 5790 5789 5789 5788 5787 5786 5784 5783 5782 5780 5779 5777 5776 5774 5774 5773 5772 5771 5769 5768 5767 5767 5767 5767 5767 5766 5766 5765 5765
5822 5807 5797 5816 5824 5825 5811 5787 5806 5817 5813 5805 5805 5804 5801 5798 5798 5797 5797 5794 5792 5790 5788 5788 5788 5785 5784 5783 5781 5780 5778 5777 5775 5774 5774 5773 5772 5770 5769 5767 5767 5767 5767 5766 5766 5765 5763 5762 5762
5799 5786 5789 5806 5824 5820 5807 5791 5807 5814 5810 5803 5803 5801 5799 5796 5796 5797 5796 5794 5792 5790 5788 5786 5786 5784 5783 5782 5781 5779 5778 5776 5775 5774 5773 5772 5771 5770 5769 5767 5766 5766 5766 5765 5765 5764 5762 5760 5760
5785 5785 5790 5796 5813 5814 5801 5797 5806 5810 5808 5803 5801 5799 5796 5794 5794 5796 5796 5795 5793 5790 5788 5786 5784 5783 5782 5781 5779 5777 5776 5775 5774 5773 5772 5771 5770 5769 5768 5767 5766 5765 5764 5763 5763 5762 5761 5760 5759
5804 5796 5792 5803 5818 5808 5797 5796 5802 5806 5804 5799 5796 5795 5793 5794 5796 5796 5796 5795 5792 5789 5786 5784 5782 5781 5780 5777 5775 5773 5771 5771 5771 5771 5771 5770 5770 5769 5768 5766 5765 5764 5762 5761 5761 5760 5758 5757 5757
5807 5796 5796 5806 5820 5808 5793 5792 5799 5803 5800 5799 5797 5794 5793 5792 5792 5793 5793 5793 5790 5787 5784 5783 5780 5779 5778 5777 5776 5774 5772 5771 5770 5770 5769 5769 5768 5768 5767 5765 5763 5762 5761 5759 5759 5758 5755 5755 5754
5806 5801 5800 5800 5808 5807 5793 5777 5784 5795 5801 5799 5798 5796 5795 5793 5790 5790 5790 5790 5788 5785 5783 5782 5780 5778 5777 5776 5775 5773 5770 5768 5766 5765 5765 5766 5766 5766 5765 5764 5762 5761 5759 5757 5757 5757 5754 5751 5751
5800 5819 5817 5808 5790 5775 5783 5753 5773 5785 5789 5791 5792 5793 5793 5792 5790 5789 5788 5787 5786 5785 5784 5781 5779 5777 5776 5774 5772 5768 5764 5761 5762 5762 5762 5763 5763 5763 5763 5762 5761 5759 5758 5756 5755 5755 5754 5751 5747
5814 5827 5818 5808 5789 5773 5775 5759 5764 5780 5776 5783 5789 5792 5793 5792 5790 5788 5787 5786 5786 5785 5782 5780 5777 5775 5774 5772 5769 5766 5763 5761 5761 5760 5759 5759 5760 5760 5759 5759 5758 5756 5755 5754 5753 5752 5751 5749 5747
5829 5817 5804 5790 5774 5753 5765 5757 5756 5770 5779 5784 5789 5794 5794 5793 5792 5788 5786 5784 5781 5780 5780 5777 5774 5771 5771 5769 5767 5764 5761 5758 5757 5756 5754 5754 5754 5755 5755 5755 5754 5752 5751 5751 5750 5749 5748 5747 5745
5817 5784 5758 5753 5742 5745 5764 5757 5760 5785 5792 5791 5791 5794 5794 5793 5790 5787 5783 5779 5778 5777 5775 5774 5771 5768 5768 5766 5764 5762 5759 5757 5754 5753 5751 5750 5749 5749 5750 5750 5749 5748 5748 5748 5747 5746 5745 5744 5742
5807 5788 5755 5741 5736 5742 5757 5752 5770 5794 5798 5799 5798 5797 5795 5791 5788 5785 5783 5780 5777 5775 5773 5771 5768 5765 5765 5763 5761 5760 5758 5755 5753 5751 5749 5747 5746 5746 5746 5746 5745 5745 5744 5744 5743 5742 5741 5740 5739
5802 5789 5786 5759 5750 5737 5745 5759 5776 5792 5791 5792 5793 5793 5790 5789 5787 5785 5782 5780 5776 5773 5771 5769 5766 5764 5762 5761 5759 5757 5755 5752 5750 5748 5746 5744 5744 5744 5743 5742 5741 5740 5740 5739 5739 5737 5736 5736 5735
5815 5800 5774 5756 5737 5727 5737 5746 5751 5770 5778 5784 5786 5787 5787 5787 5785 5783 5781 5779 5775 5773 5771 5768 5765 5762 5760 5758 5756 5754 5751 5749 5747 5745 5742 5741 5740 5739 5738 5738 5737 5736 5735 5734 5733 5732 5731 5730 5729
5801 5790 5774 5755 5749 5729 5722 5740 5781 5778 5782 5783 5785 5787 5787 5785 5783 5781 5779 5777 5774 5771 5768 5764 5761 5758 5756 5754 5752 5749 5746 5745 5743 5740 5739 5738 5736 5735 5734 5733 5731 5730 5730 5729 5727 5726 5725 5724 5723
5807 5793 5775 5753 5746 5741 5733 5745 5794 5789 5789 5788 5786 5786 5786 5785 5782 5780 5777 5774 5771 5768 5765 5761 5758 5755 5753 5751 5748 5744 5742 5740 5738 5736 5735 5734 5732 5731 5729 5728 5726 5725 5724 5723 5722 5720 5719 5717 5717